Kuiper-00059

operational
NORAD ID: 64519 Int'l Des: 2025-134 Owner: KUIP Country: US Constellation: kuiper
LEOCIRCULAR

关于 Kuiper-00059

正在加载描述...

实时位置

正在加载3D地球...

即将过境

高度历史

Altitude vs Time

uPlot chart will show altitude changes over time

两行轨道根数

1 64519U 25134V 25340.51994754 -.00001215 00000-0 -13026-3 0 9994
2 64519 51.9001 272.5794 0004223 146.6795 213.4434 14.79943513 26452
Epoch: Dec 6, 2025 • Age: 21 hours

当前状态

高度 632.9 km
速度 7.55 km/s
星下点 37.22°N, 81.96°E
发射日期 Jun 23, 2025
运行时间 0.4 years
类型 internet

技术详情

分类 Payload
质量 490.00 kg
干质量 490.00 kg
总质量 490.00 kg
长度 1.80 m
直径 0.70 m
跨度 5.00 m
形状 Box + 2 pan
制造商 KUIP
平台类型 Kuiper
阶段状态 In Orbit
所有者/国家 KUIP/US

大型星座

Loading constellations...